Regional Weather Roundup
Issued by NWS State College, PA

Home | Current Version | Previous Version | Text Only | Print | Product List | Glossary On
Versions: 1 2 3 4 5 6 7 8 9 10 11 12 13 14 15 16 17 18 19 20 21 22 23 24 25 26 27 28 29 30 31 32 33 34 35 36 37 38 39 40 41 42 43 44 45 46 47 48 49 50
000
ASUS41 KCTP 292203
RWRCTP

REGIONAL WEATHER ROUNDUP
NATIONAL WEATHER SERVICE STATE COLLEGE PA
600 PM EDT WED MAR 29 2017

Note: "fair" indicates few or no clouds below 12,000 feet with no
significant weather and/or obstructions to visibility.

* = STATION THAT DOES NOT REPORT PRECIPITATION /E.G. RAIN...SNOW...ETC/
    THUNDER OR FOG.

PAZ002>004-007>009-013>016-020>023-029>032-292300-
WESTERN PENNSYLVANIA

CITY           SKY/WX    TMP DP  RH WIND       PRES   REMARKS
ERIE           SUNNY     44  33  65 N3        30.25R
MEADVILLE      SUNNY     50  27  40 N13       30.20R
FRANKLIN*      SUNNY     54  27  35 NE12      30.19R
NEW CASTLE     FAIR      57  31  37 N9        30.18S
BEAVER COUNTY  SUNNY     57  30  35 N6        30.17S
BUTLER*        SUNNY     59  30  33 N6        30.17S
PITTSBURGH INT PTSUNNY   60  31  33 CALM      30.15S
PITTSBURGH     SUNNY     60  30  32 VRB5      30.14S
INDIANA*       SUNNY     59  30  33 NW10      30.17R
LATROBE        NOT AVBL
WASHINGTON CO* SUNNY     59  34  38 NW9       30.17S
$$

PAZ004>006-010>012-017>019-024>028-033>037-041-042-045-046-049>053-292300-
CENTRAL PENNSYLVANIA

CITY           SKY/WX    TMP DP  RH WIND       PRES   REMARKS
BRADFORD       SUNNY     50  27  40 N10       30.17S
DUBOIS         SUNNY     55  24  30 NW8       30.14S
CLEARFIELD     SUNNY     57  27  31 NE8       30.14S
JOHNSTOWN      SUNNY     55  28  35 NW13      30.13R
ALTOONA        SUNNY     60  32  34 N6        30.12S
STATE COLLEGE  SUNNY     55  28  35 NE12      30.14R
WILLIAMSPORT   SUNNY     55  26  32 N14G21    30.16S
SELINSGROVE    SUNNY     55  31  39 N14G23    30.17R
FT INDIANTOWN  SUNNY     55  29  36 N14G20    30.14R
CAPITAL CITY   SUNNY     59  28  30 N13       30.14S
HARRISBURG     MOSUNNY   57  31  37 N14       30.13S
YORK           SUNNY     57  33  40 N13       30.13R
$$

PAZ038>040-043-044-047-048-054-055-060>062-067>071-292300-
EASTERN PENNSYLVANIA

CITY           SKY/WX    TMP DP  RH WIND       PRES   REMARKS
SCRANTON       SUNNY     51  28  41 NW17G25   30.15R
MOUNT POCONO   SUNNY     44  24  45 NW14G29   30.10R
ALLENTOWN      SUNNY     55  27  34 N16G22    30.12R
QUAKERTOWN*    CLEAR     55  28  35 N8G17     30.12R
READING        SUNNY     57  30  35 N16       30.12R
LANCASTER      SUNNY     58  33  39 N9        30.13R
COATESVILLE    CLEAR     55  30  38 N14G21    30.12R
POTTSTOWN      SUNNY     56  28  34 N14       30.12R
BLUE BELL      SUNNY     55  32  41 NW7       30.10R
DOYLESTOWN     SUNNY     56  28  34 NW13G23   30.09R
WILLOW GROVE   NOT AVBL
NORTH PHILA    SUNNY     60  29  30 N17G23    30.10R
PHILADELPHIA   SUNNY     60  29  30 N15G26    30.10R
$$




USA.gov is the U.S. government's official web portal to all federal, state and local government web resources and services.